Time,TemperatureF,DewpointF,PressureIn,WindDirection,WindDirectionDegrees,WindSpeedMPH,WindSpeedGustMPH,Humidity,HourlyPrecipIn,Conditions,Clouds,dailyrainin,SolarRadiationWatts/m^2,SoftwareType,DateUTC
2015-06-02 00:00:00,61.7,61.2,27.98,WSW,237,0.0,0.0,98,0.00,,,0.00,0.00,Weather logger V1.0,2015-06-02 04:00:00,
2015-06-02 00:05:00,61.7,61.2,27.98,WSW,237,0.0,0.0,98,0.00,,,0.00,0.00,Weather logger V1.0,2015-06-02 04:05:00,
2015-06-02 00:10:00,61.7,61.2,27.98,WSW,237,0.0,0.0,98,0.00,,,0.00,0.00,Weather logger V1.0,2015-06-02 04:10:00,
2015-06-02 00:15:00,61.7,61.2,27.99,WSW,237,0.0,0.0,98,0.00,,,0.00,0.00,Weather logger V1.0,2015-06-02 04:15:00,
2015-06-02 00:20:00,61.7,61.2,27.99,WSW,237,0.0,0.0,98,0.00,,,0.00,0.00,Weather logger V1.0,2015-06-02 04:20:00,
2015-06-02 00:25:00,61.7,61.2,27.99,WSW,237,0.0,0.0,98,0.00,,,0.00,0.00,Weather logger V1.0,2015-06-02 04:25:00,
2015-06-02 00:30:00,61.7,61.2,27.99,SW,231,0.0,0.0,98,0.00,,,0.00,0.00,Weather logger V1.0,2015-06-02 04:30:00,
2015-06-02 00:35:00,61.7,61.2,27.98,SW,229,0.0,0.0,98,0.00,,,0.00,0.00,Weather logger V1.0,2015-06-02 04:35:00,
2015-06-02 00:40:00,61.5,61.0,27.99,SW,229,0.0,0.0,98,0.00,,,0.00,0.00,Weather logger V1.0,2015-06-02 04:40:00,
2015-06-02 00:45:00,61.5,61.0,27.99,SW,229,0.0,0.0,98,0.00,,,0.00,0.00,Weather logger V1.0,2015-06-02 04:45:00,
2015-06-02 00:50:00,61.5,61.0,27.98,WSW,239,0.0,0.0,98,0.00,,,0.00,0.00,Weather logger V1.0,2015-06-02 04:50:00,
2015-06-02 00:55:00,61.5,61.0,27.98,WSW,239,0.0,0.0,98,0.00,,,0.00,0.00,Weather logger V1.0,2015-06-02 04:55:00,
2015-06-02 01:00:00,61.5,61.0,27.98,WSW,239,0.0,0.0,98,0.00,,,0.00,0.00,Weather logger V1.0,2015-06-02 05:00:00,
2015-06-02 01:06:00,61.5,61.0,27.98,WSW,239,0.0,0.0,98,0.00,,,0.00,0.00,Weather logger V1.0,2015-06-02 05:06:00,
2015-06-02 01:11:00,61.5,61.0,27.97,WSW,238,0.0,0.0,98,0.00,,,0.00,0.00,Weather logger V1.0,2015-06-02 05:11:00,
2015-06-02 01:16:00,61.5,61.0,27.98,WSW,239,0.0,0.0,98,0.00,,,0.00,0.00,Weather logger V1.0,2015-06-02 05:16:00,
2015-06-02 01:21:00,61.5,61.0,27.97,WSW,238,0.0,0.0,98,0.00,,,0.00,0.00,Weather logger V1.0,2015-06-02 05:21:00,
2015-06-02 01:26:00,61.7,61.2,27.97,WSW,239,0.0,0.0,98,0.00,,,0.00,0.00,Weather logger V1.0,2015-06-02 05:26:00,
2015-06-02 01:36:00,61.7,61.2,27.97,WSW,238,0.0,0.0,98,0.00,,,0.00,0.00,Weather logger V1.0,2015-06-02 05:36:00,
2015-06-02 01:41:00,61.7,61.2,27.96,WSW,238,0.0,0.0,98,0.00,,,0.00,0.00,Weather logger V1.0,2015-06-02 05:41:00,
2015-06-02 01:46:00,61.7,61.2,27.97,WSW,239,0.0,0.0,98,0.00,,,0.00,0.00,Weather logger V1.0,2015-06-02 05:46:00,
2015-06-02 01:51:00,61.7,61.2,27.97,WSW,239,0.0,0.0,98,0.00,,,0.00,0.00,Weather logger V1.0,2015-06-02 05:51:00,
2015-06-02 01:56:00,61.7,61.2,27.97,WSW,239,0.0,0.0,98,0.00,,,0.00,0.00,Weather logger V1.0,2015-06-02 05:56:00,
2015-06-02 02:01:00,61.7,61.2,27.97,WSW,239,0.0,0.0,98,0.00,,,0.00,0.00,Weather logger V1.0,2015-06-02 06:01:00,
2015-06-02 02:06:00,61.7,61.2,27.97,WSW,239,0.0,0.0,98,0.00,,,0.00,0.00,Weather logger V1.0,2015-06-02 06:06:00,
2015-06-02 02:11:00,61.9,61.3,27.96,WSW,239,0.0,0.0,98,0.07,,,0.01,0.00,Weather logger V1.0,2015-06-02 06:11:00,
2015-06-02 02:16:00,61.9,61.3,27.96,WSW,239,0.0,0.0,98,0.21,,,0.04,0.00,Weather logger V1.0,2015-06-02 06:16:00,
2015-06-02 02:22:00,61.9,61.3,27.97,South,191,1.3,2.5,98,0.78,,,0.14,0.00,Weather logger V1.0,2015-06-02 06:22:00,
2015-06-02 02:27:00,62.1,61.5,27.96,SW,217,0.0,0.0,98,1.13,,,0.24,0.00,Weather logger V1.0,2015-06-02 06:27:00,
2015-06-02 02:32:00,62.1,61.5,27.96,SSW,209,0.0,0.0,98,0.85,,,0.28,0.00,Weather logger V1.0,2015-06-02 06:32:00,
2015-06-02 02:37:00,61.9,61.3,27.95,SW,221,0.0,0.0,98,0.28,,,0.30,0.00,Weather logger V1.0,2015-06-02 06:37:00,
2015-06-02 02:42:00,61.9,61.3,27.96,SW,231,0.0,0.0,98,0.00,,,0.30,0.00,Weather logger V1.0,2015-06-02 06:42:00,
2015-06-02 02:47:00,61.9,61.3,27.96,SW,223,0.0,0.0,98,0.00,,,0.30,0.00,Weather logger V1.0,2015-06-02 06:47:00,
2015-06-02 02:52:00,61.9,61.3,27.95,SW,225,0.0,0.0,98,0.00,,,0.30,0.00,Weather logger V1.0,2015-06-02 06:52:00,
2015-06-02 02:57:00,61.9,61.3,27.95,SW,225,0.0,0.0,98,0.00,,,0.30,0.00,Weather logger V1.0,2015-06-02 06:57:00,
2015-06-02 03:02:00,61.9,61.3,27.95,SW,233,0.0,0.0,98,0.00,,,0.30,0.00,Weather logger V1.0,2015-06-02 07:02:00,
2015-06-02 03:07:00,61.9,61.3,27.95,SW,233,0.0,0.0,98,0.00,,,0.30,0.00,Weather logger V1.0,2015-06-02 07:07:00,
2015-06-02 03:12:00,61.9,61.3,27.96,SW,221,0.0,0.0,98,0.00,,,0.30,0.00,Weather logger V1.0,2015-06-02 07:12:00,
2015-06-02 03:17:00,61.9,61.3,27.96,SW,222,0.0,0.0,98,0.00,,,0.30,0.00,Weather logger V1.0,2015-06-02 07:17:00,
2015-06-02 03:22:00,61.7,61.2,27.96,SW,222,0.0,0.0,98,0.00,,,0.30,0.00,Weather logger V1.0,2015-06-02 07:22:00,
2015-06-02 03:27:00,61.7,61.2,27.95,SW,222,0.0,0.0,98,0.00,,,0.30,0.00,Weather logger V1.0,2015-06-02 07:27:00,
2015-06-02 03:32:00,61.7,61.2,27.95,SW,222,0.0,0.0,98,0.00,,,0.30,0.00,Weather logger V1.0,2015-06-02 07:32:00,
2015-06-02 03:37:00,61.7,61.2,27.95,SW,222,0.0,0.0,98,0.00,,,0.30,0.00,Weather logger V1.0,2015-06-02 07:37:00,
2015-06-02 03:43:00,61.7,61.2,27.95,SW,221,0.0,0.0,98,0.00,,,0.30,0.00,Weather logger V1.0,2015-06-02 07:43:00,
2015-06-02 03:48:00,61.7,61.2,27.95,SW,217,0.0,0.0,98,0.00,,,0.30,0.00,Weather logger V1.0,2015-06-02 07:48:00,
2015-06-02 03:53:00,61.7,61.2,27.94,SW,217,0.0,0.0,98,0.00,,,0.30,0.00,Weather logger V1.0,2015-06-02 07:53:00,
2015-06-02 03:58:00,61.7,61.2,27.95,SW,217,0.0,0.0,98,0.00,,,0.30,0.00,Weather logger V1.0,2015-06-02 07:58:00,
2015-06-02 04:03:00,61.7,61.2,27.94,SW,236,0.0,0.0,98,0.00,,,0.30,0.00,Weather logger V1.0,2015-06-02 08:03:00,
2015-06-02 04:08:00,61.7,61.2,27.95,WSW,242,0.0,0.0,98,0.00,,,0.30,0.00,Weather logger V1.0,2015-06-02 08:08:00,
2015-06-02 04:13:00,61.7,61.2,27.94,WSW,242,0.0,0.0,98,0.00,,,0.30,0.00,Weather logger V1.0,2015-06-02 08:13:00,
2015-06-02 04:18:00,61.7,61.2,27.94,WSW,242,0.0,0.0,98,0.00,,,0.30,0.00,Weather logger V1.0,2015-06-02 08:18:00,
2015-06-02 04:23:00,61.7,61.2,27.94,WSW,242,0.0,0.0,98,0.00,,,0.30,0.00,Weather logger V1.0,2015-06-02 08:23:00,
2015-06-02 04:33:00,61.7,61.2,27.94,WSW,242,0.0,0.0,98,0.00,,,0.30,0.00,Weather logger V1.0,2015-06-02 08:33:00,
2015-06-02 04:38:00,61.9,61.3,27.93,WSW,242,0.0,0.0,98,0.00,,,0.30,0.00,Weather logger V1.0,2015-06-02 08:38:00,
2015-06-02 04:43:00,61.9,61.3,27.94,WSW,242,0.0,0.0,98,0.00,,,0.30,0.00,Weather logger V1.0,2015-06-02 08:43:00,
2015-06-02 04:48:00,61.9,61.3,27.93,WSW,243,0.0,0.0,98,0.00,,,0.30,0.00,Weather logger V1.0,2015-06-02 08:48:00,
2015-06-02 04:54:00,61.9,61.3,27.94,WSW,242,0.0,0.0,98,0.00,,,0.30,0.00,Weather logger V1.0,2015-06-02 08:54:00,
2015-06-02 04:59:00,61.9,61.3,27.94,WSW,242,0.0,0.0,98,0.00,,,0.30,0.00,Weather logger V1.0,2015-06-02 08:59:00,
2015-06-02 05:04:00,61.9,61.3,27.93,WSW,242,0.0,0.0,98,0.00,,,0.30,0.00,Weather logger V1.0,2015-06-02 09:04:00,
2015-06-02 05:09:00,61.9,61.3,27.94,WSW,242,0.0,0.0,98,0.00,,,0.30,0.00,Weather logger V1.0,2015-06-02 09:09:00,
2015-06-02 05:14:00,61.9,61.3,27.94,WSW,242,0.0,0.0,98,0.00,,,0.30,0.00,Weather logger V1.0,2015-06-02 09:14:00,
2015-06-02 05:19:00,61.9,61.3,27.94,WSW,242,0.0,0.0,98,0.00,,,0.30,0.00,Weather logger V1.0,2015-06-02 09:19:00,
2015-06-02 05:24:00,61.7,61.2,27.93,WSW,242,0.0,0.0,98,0.00,,,0.30,0.00,Weather logger V1.0,2015-06-02 09:24:00,
2015-06-02 05:29:00,61.7,61.2,27.93,WSW,242,0.0,0.0,98,0.00,,,0.30,0.00,Weather logger V1.0,2015-06-02 09:29:00,
2015-06-02 05:34:00,61.5,61.0,27.93,WSW,242,0.0,0.0,98,0.00,,,0.30,0.00,Weather logger V1.0,2015-06-02 09:34:00,
2015-06-02 05:39:00,61.5,61.0,27.93,WSW,242,0.0,0.0,98,0.00,,,0.30,0.00,Weather logger V1.0,2015-06-02 09:39:00,
2015-06-02 05:44:00,61.3,60.8,27.93,WSW,242,0.0,0.0,98,0.00,,,0.30,0.00,Weather logger V1.0,2015-06-02 09:44:00,
2015-06-02 05:49:00,61.3,60.8,27.93,WSW,242,0.0,0.0,98,0.00,,,0.30,0.00,Weather logger V1.0,2015-06-02 09:49:00,
2015-06-02 05:54:00,61.3,60.8,27.93,WSW,242,0.0,0.0,98,0.00,,,0.30,0.00,Weather logger V1.0,2015-06-02 09:54:00,
2015-06-02 05:59:00,61.2,60.6,27.93,WSW,242,0.0,0.0,98,0.00,,,0.30,0.00,Weather logger V1.0,2015-06-02 09:59:00,
2015-06-02 06:04:00,61.2,60.6,27.93,WSW,242,0.0,0.0,98,0.00,,,0.30,0.00,Weather logger V1.0,2015-06-02 10:04:00,
2015-06-02 06:15:00,61.2,60.6,27.94,WSW,242,0.0,0.0,98,0.00,,,0.30,0.00,Weather logger V1.0,2015-06-02 10:15:00,
2015-06-02 06:20:00,61.2,60.6,27.94,WSW,242,0.0,0.0,98,0.00,,,0.30,0.00,Weather logger V1.0,2015-06-02 10:20:00,
2015-06-02 06:25:00,61.2,60.6,27.94,WSW,242,0.0,0.0,98,0.00,,,0.30,0.00,Weather logger V1.0,2015-06-02 10:25:00,
2015-06-02 06:30:00,61.2,60.6,27.94,WSW,242,0.0,0.0,98,0.00,,,0.30,0.00,Weather logger V1.0,2015-06-02 10:30:00,
2015-06-02 06:35:00,61.2,60.6,27.94,WSW,242,0.0,0.0,98,0.00,,,0.30,0.39,Weather logger V1.0,2015-06-02 10:35:00,
2015-06-02 06:40:00,61.0,60.4,27.94,WSW,242,0.0,0.0,98,0.00,,,0.30,1.22,Weather logger V1.0,2015-06-02 10:40:00,
2015-06-02 06:45:00,61.0,60.4,27.95,WSW,242,0.0,0.0,98,0.00,,,0.30,2.29,Weather logger V1.0,2015-06-02 10:45:00,
2015-06-02 06:50:00,61.0,60.4,27.95,WSW,242,0.0,0.0,98,0.00,,,0.30,3.63,Weather logger V1.0,2015-06-02 10:50:00,
2015-06-02 06:55:00,60.8,60.3,27.95,WSW,242,0.0,0.0,98,0.00,,,0.30,4.85,Weather logger V1.0,2015-06-02 10:55:00,
2015-06-02 07:00:00,60.8,60.3,27.96,WSW,242,0.0,0.0,98,0.00,,,0.30,5.43,Weather logger V1.0,2015-06-02 11:00:00,
2015-06-02 07:05:00,60.8,60.3,27.96,WSW,242,0.0,0.0,98,0.00,,,0.30,6.11,Weather logger V1.0,2015-06-02 11:05:00,
2015-06-02 07:10:00,60.8,60.3,27.95,WSW,242,0.0,0.0,98,0.00,,,0.30,7.67,Weather logger V1.0,2015-06-02 11:10:00,
2015-06-02 07:15:00,60.8,60.3,27.96,WSW,242,0.0,0.0,98,0.00,,,0.30,10.02,Weather logger V1.0,2015-06-02 11:15:00,
2015-06-02 07:20:00,60.8,60.3,27.96,WSW,242,0.0,0.0,98,0.00,,,0.30,16.67,Weather logger V1.0,2015-06-02 11:20:00,
2015-06-02 07:26:00,61.0,60.4,27.96,WSW,242,0.0,0.0,98,0.00,,,0.30,37.79,Weather logger V1.0,2015-06-02 11:26:00,
2015-06-02 07:31:00,61.2,60.6,27.96,WSW,242,0.0,0.0,98,0.00,,,0.30,48.87,Weather logger V1.0,2015-06-02 11:31:00,
2015-06-02 07:36:00,61.3,60.8,27.96,WSW,242,0.0,0.0,98,0.00,,,0.30,52.34,Weather logger V1.0,2015-06-02 11:36:00,
2015-06-02 07:41:00,61.5,61.0,27.97,WSW,242,0.0,0.0,98,0.00,,,0.30,35.04,Weather logger V1.0,2015-06-02 11:41:00,
2015-06-02 07:46:00,61.7,61.2,27.96,SW,217,0.0,0.0,98,0.00,,,0.30,26.90,Weather logger V1.0,2015-06-02 11:46:00,
2015-06-02 07:51:00,61.9,61.3,27.96,SW,217,0.0,0.0,98,0.00,,,0.30,32.96,Weather logger V1.0,2015-06-02 11:51:00,
2015-06-02 07:56:00,62.1,61.5,27.96,SW,217,0.0,0.0,98,0.00,,,0.30,38.55,Weather logger V1.0,2015-06-02 11:56:00,
2015-06-02 08:01:00,62.1,61.5,27.97,SW,231,0.0,0.0,98,0.00,,,0.30,37.28,Weather logger V1.0,2015-06-02 12:01:00,
2015-06-02 08:06:00,62.1,61.5,27.97,SW,230,0.0,0.0,98,0.00,,,0.30,34.51,Weather logger V1.0,2015-06-02 12:06:00,
2015-06-02 08:11:00,62.1,61.2,27.96,SSW,207,0.0,0.0,97,0.00,,,0.30,56.42,Weather logger V1.0,2015-06-02 12:11:00,
2015-06-02 08:16:00,62.2,61.7,27.96,SW,220,0.0,0.0,98,0.00,,,0.30,54.87,Weather logger V1.0,2015-06-02 12:16:00,
2015-06-02 08:21:00,62.2,61.3,27.97,SW,222,0.0,0.0,97,0.00,,,0.30,64.15,Weather logger V1.0,2015-06-02 12:21:00,
2015-06-02 08:26:00,62.4,61.5,27.97,SSW,209,0.0,0.0,97,0.00,,,0.30,68.48,Weather logger V1.0,2015-06-02 12:26:00,